• Join FlightAware (Why Join?)
  • Login
  • US Flag 
03:18PM EST


 

Airport Tracker/Info


-or-


 

Live Flight TrackerFlight Track Log ✈ TAM3270 ✈ 02-Jul-2013 ✈ SBSP / CGH - SBRP / RAO

Flight Track Log - Related Links

Times and Time Zones

All times are in EDT time to prevent confusion due to time zone crossing. See the TAM3270 flight status page for this flight to view local times or setup timezone preferences in your user account.

Time Position Orientation Groundspeed Altitude Reporting Facility
EDT Latitude Longitude Course Direction KTS MPH feet Rate Location/Type
05:42AM -23.6260 -46.6580 116° Southeast  Level FlightAware
05:42AM -23.6240 -46.6600 318° Northwest 486 Level FlightAware
05:44AM -23.6220 -46.6610 335° Northwest 539 Level FlightAware
05:44AM -23.6210 -46.6610 360° North 671 Level FlightAware
05:47AM -23.4686 -46.7305 337° Northwest  Level Estimated
05:48AM -23.4046 -46.7596 337° Northwest  Level Estimated
05:49AM -23.3406 -46.7887 337° Northwest  Level Estimated
05:49AM -23.6450 -46.6390 337° Northwest 172 198 3,700  Level FlightAware
05:49AM -23.6460 -46.6310 98° East 183 211 4,000 2,600 Climbing FlightAware
05:50AM -23.6370 -46.6130 61° Northeast 209 241 5,000 3,130 Climbing FlightAware
05:50AM -23.6180 -46.5980 36° Northeast 207 238 6,400 2,833 Climbing FlightAware
05:50AM -23.6130 -46.5870 64° Northeast 217 250 6,700 2,100 Climbing FlightAware
05:51AM -23.6070 -46.5540 79° East 254 292 7,800 2,308 Climbing FlightAware
05:51AM -23.5980 -46.5210 73° East 293 337 8,700 2,264 Climbing FlightAware
05:52AM -23.5890 -46.4800 77° East 296 341 9,800 1,083 Climbing FlightAware
05:52AM -23.5740 -46.4160 76° East 299 344 10,000 282 Climbing FlightAware
05:53AM -23.5570 -46.3550 73° East 306 352 10,200 750 Climbing FlightAware
05:53AM -23.5420 -46.3390 44° Northeast 324 373 10,700 1,655 Climbing FlightAware
05:54AM -23.5220 -46.3310 20° North 340 391 11,000 1,286 Climbing FlightAware
05:54AM -23.5030 -46.3320 357° North 350 403 11,300 3,368 Climbing FlightAware
05:55AM -23.4350 -46.3620 338° Northwest 346 398 14,200 3,000 Climbing FlightAware
05:55AM -23.3710 -46.3910 337° Northwest 381 438 15,500 2,268 Climbing FlightAware
05:56AM -23.3000 -46.4210 339° North 396 456 17,300 3,000 Climbing FlightAware
05:57AM -23.2300 -46.4510 339° North 390 449 19,700 3,600 Climbing FlightAware
05:57AM -23.1670 -46.4780 338° Northwest 377 434 22,100 3,000 Climbing FlightAware
05:58AM -23.0930 -46.5100 338° Northwest 373 429 23,900 1,310 Climbing FlightAware
05:59AM -23.0260 -46.5380 339° North 373 429 24,000 71 Climbing FlightAware
05:59AM -22.9550 -46.5670 339° North 375 432 24,000  Level FlightAware
06:00AM -22.8840 -46.5810 350° North 372 428 24,000  Level FlightAware
06:01AM -22.8180 -46.5920 351° North 371 427 24,000  Level FlightAware
06:02AM -22.7390 -46.6050 351° North 368 423 24,000  Level FlightAware
06:02AM -22.6750 -46.6160 351° North 364 419 24,000  Level FlightAware
06:03AM -22.6150 -46.6260 351° North 365 420 24,000  Level FlightAware
06:03AM -22.5640 -46.6340 352° North 365 420 24,000  Level FlightAware
06:04AM -22.4800 -46.6480 351° North 367 422 24,000  Level FlightAware
06:05AM -22.4130 -46.6590 351° North 367 422 24,000  Level FlightAware
06:06AM -22.3410 -46.6700 352° North 367 422 24,000  Level FlightAware
06:06AM -22.2590 -46.6830 352° North 365 420 24,000  Level FlightAware
06:07AM -22.1890 -46.7150 337° Northwest 357 411 24,000  Level FlightAware
06:08AM -22.1290 -46.7490 332° Northwest 355 409 24,000  Level FlightAware
06:09AM -22.0640 -46.7850 333° Northwest 354 407 24,000  Level FlightAware
06:09AM -22.0040 -46.8200 332° Northwest 356 410 24,000  Level FlightAware
06:10AM -21.9400 -46.8590 331° Northwest 349 402 24,000  Level FlightAware
06:11AM -21.8760 -46.9150 321° Northwest 352 405 24,000  Level FlightAware
06:11AM -21.8300 -46.9550 321° Northwest 351 404 24,000  Level FlightAware
06:12AM -21.7830 -46.9970 320° Northwest 348 400 24,000 -506 Level FlightAware
06:13AM -21.7280 -47.0460 320° Northwest 352 405 23,300 -1,558 Descending FlightAware
06:13AM -21.6820 -47.0860 321° Northwest 352 405 22,000 -2,357 Descending FlightAware
06:14AM -21.6110 -47.1490 320° Northwest 345 397 20,000 -2,069 Descending FlightAware
06:15AM -21.5620 -47.1920 321° Northwest 355 409 19,000 -2,357 Descending FlightAware
06:16AM -21.5020 -47.2440 321° Northwest 381 438 16,700 -2,929 Descending FlightAware
06:16AM -21.4460 -47.2940 320° Northwest 403 464 14,900 -2,206 Descending FlightAware
06:17AM -21.4010 -47.3190 333° Northwest 385 443 14,200 -1,417 Descending FlightAware
06:18AM -21.3270 -47.3260 355° North 358 412 13,200 -1,373 Descending FlightAware
06:18AM -21.2650 -47.3310 356° North 338 389 12,300 -1,500 Descending FlightAware
06:19AM -21.1930 -47.3360 356° North 323 372 11,100 -1,200 Descending FlightAware
06:20AM -21.1370 -47.3400 356° North 288 331 10,600 -857 Descending FlightAware
06:20AM -21.0800 -47.3450 355° North 265 305 9,900 -1,000 Descending FlightAware
06:21AM -21.0470 -47.3480 355° North 261 300 9,400 -1,071 Descending FlightAware
06:21AM -21.0130 -47.3500 357° North 255 293 8,900 -923 Descending FlightAware
06:22AM -20.9860 -47.3610 339° North 254 292 8,600 -714 Descending FlightAware
06:22AM -20.9750 -47.3800 302° West 256 295 8,400 -522 Descending FlightAware
06:22AM -20.9700 -47.4130 279° West 254 292 8,200 -536 Descending FlightAware
06:23AM -20.9640 -47.4490 280° West 253 291 7,900 -536 Descending FlightAware
06:23AM -20.9590 -47.4830 279° West 255 293 7,700 -429 Descending FlightAware
06:24AM -20.9530 -47.5190 280° West 256 295 7,500 -750 Descending FlightAware
06:24AM -20.9470 -47.5540 280° West 259 298 7,000 -1,179 Descending FlightAware
06:25AM -20.9420 -47.5890 279° West 254 292 6,400 -1,154 Descending FlightAware
06:25AM -20.9370 -47.6190 280° West 255 293 6,000 -1,125 Descending FlightAware
06:26AM -20.9320 -47.6490 280° West 253 291 5,500 -1,125 Descending FlightAware
06:26AM -20.9310 -47.6580 277° West 251 289 5,400 -947 Descending FlightAware
06:26AM -20.9250 -47.6950 280° West 246 283 4,900 -600 Descending FlightAware
06:27AM -20.9200 -47.7280 279° West 217 250 4,800 -300 Descending FlightAware
06:28AM -20.9280 -47.7750 260° West 192 221 4,500 -600 Descending FlightAware
06:28AM -20.9440 -47.7980 233° Southwest 195 224 4,000 -1,000 Descending FlightAware
06:28AM -20.9510 -47.8080 233° Southwest 194 223 3,800 -1,000 Descending FlightAware
06:29AM -20.9650 -47.8240 227° Southwest 178 205 3,400 -643 Descending FlightAware
06:29AM -20.9860 -47.8200 170° South 136 157 3,200 -200 Descending FlightAware
06:30AM -21.0030 -47.8150 165° South 127 146 3,200  Level FlightAware
06:30AM -21.0190 -47.8110 167° South 127 146 3,200  Level FlightAware
06:31AM -21.0350 -47.8060 164° South 126 145 3,200  Level FlightAware
06:31AM -21.0510 -47.8000 161° South 130 150 3,200 -421 Level FlightAware
06:31AM -21.0670 -47.7950 164° South 126 145 2,800 -750 Descending FlightAware
06:32AM -21.0830 -47.7910 167° South 126 145 2,500 -638 Descending FlightAware
06:32AM -21.0940 -47.7870 161° South 125 144 2,300 -652 Descending FlightAware
06:33AM -21.1090 -47.7820 163° South 123 142 2,000 -655 Descending FlightAware
06:33AM -21.1250 -47.7770 164° South 125 144 1,700 -621 Descending FlightAware
06:33AM -21.1340 -47.7740 163° South 78 90 -6,000 Descending FlightAware
06:34AM -21.1360 -47.7740 180° South 20 23  Level FlightAware
06:34AM -21.1370 -47.7750 223° Southwest 23 26  Level FlightAware
06:35AM -21.1380 -47.7750 180° South 29 33  Level FlightAware
06:35AM -21.1390 -47.7750 180° South 21 24  Level FlightAware
06:38AM -21.1342 -47.7742 North  Level Estimated
06:39AM -21.1342 -47.7742 17° North  Level Estimated
06:40AM -21.1342 -47.7742 17° North  Level Estimated
06:41AM -21.1342 -47.7742 17° North  Level Estimated
06:42AM -21.1342 -47.7742 17° North  Level Estimated
06:43AM -21.1342 -47.7742 17° North  Level Estimated
06:44AM -21.1342 -47.7742 17° North  Level Estimated
06:45AM -21.1342 -47.7742 17° North  Level Estimated
06:46AM -21.1342 -47.7742 17° North  Level Estimated
06:47AM -21.1342 -47.7742 17° North  Level Estimated
06:48AM -21.1342 -47.7742 17° North  Level Estimated
06:49AM -21.1342 -47.7742 17° North  Level Estimated
06:50AM -21.1342 -47.7742 17° North  Level Estimated
06:51AM -21.1342 -47.7742 17° North  Level Estimated
06:52AM -21.1342 -47.7742 17° North  Level Estimated
06:53AM -21.1342 -47.7742 17° North  Level Estimated
06:54AM -21.1342 -47.7742 17° North  Level Estimated